Change the Weather History Date:

Sunday, September 29, 2013

  Actual Average (KEGV) Record (KEGV)
Temperature  
Mean Temperature 51 °F -  
Max Temperature 67 °F 57 °F 75 °F (2000)
Min Temperature 35 °F 39 °F 24 °F (2003)
Degree Days  
Heating Degree Days 14    
Growing Degree Days 1 (Base 50)    
Moisture  
Dew Point 42 °F    
Average Humidity 73    
Maximum Humidity 100    
Minimum Humidity 33    
Precipitation  
Precipitation 0.02 in - - ()
Sea Level Pressure  
Sea Level Pressure 29.95 in    
Wind  
Wind Speed 4 mph (SW)    
Max Wind Speed 10 mph    
Max Gust Speed 17 mph    
Visibility 9 miles    
Events Fog    
Averages and records for this station are not official NWS values.
T = Trace of Precipitation, MM = Missing Value Source: NWS Daily Summary

Daily Weather History Graph

Daily Weather History Graph

Search for Another Location

Airport or City:

Trip Planner

Search our weather history database for the weather conditions in past years. The results will help you decide how hot, cold, wet, or windy it might be!

Date:

Astronomy

Sep. 29, 2013 Rise Set
Actual Time 6:53 AM CDT 6:40 PM CDT
Civil Twilight 6:23 AM CDT 7:10 PM CDT
Nautical Twilight 5:48 AM CDT 7:44 PM CDT
Astronomical Twilight 5:12 AM CDT 8:20 PM CDT
Moon 1:19 AM CDT (9/29) 3:49 PM CDT (9/29)
Length of Visible Light 12h 46m
Length of Day
11h 47m
Waning Crescent, 27% of the Moon is Illuminated
Sep 29
Waning Crescent
Oct 4
New
Oct 11
First Quarter
Oct 18
Full
Oct 26
Last Quarter

Hourly Weather History & Observations

Time (CDT) Temp. Windchill Dew Point Humidity Pressure Visibility Wind Dir Wind Speed Gust Speed Precip Events Conditions
12:15 AM 51.3 °F - 48.4 °F 90% 29.89 in 10.0 mi West 6.9 mph - N/A   Overcast
12:35 AM 50.9 °F - 46.9 °F 86% 29.90 in 10.0 mi West 10.4 mph 17.3 mph N/A   Mostly Cloudy
12:55 AM 50.2 °F - 46.8 °F 88% 29.91 in 10.0 mi West 6.9 mph - N/A   Mostly Cloudy
1:15 AM 49.3 °F - 46.2 °F 89% 29.91 in 10.0 mi West 5.8 mph - N/A   Scattered Clouds
1:35 AM 48.4 °F - 45.5 °F 90% 29.92 in 10.0 mi WSW 3.5 mph - N/A   Clear
1:55 AM 47.7 °F - 45.1 °F 91% 29.92 in 10.0 mi WSW 3.5 mph - N/A   Clear
2:15 AM 47.3 °F - 44.6 °F 90% 29.92 in 10.0 mi West 3.5 mph - N/A   Clear
2:35 AM 46.4 °F 45.2 °F 43.9 °F 91% 29.93 in 10.0 mi West 3.5 mph - N/A   Clear
2:55 AM 45.5 °F 44.2 °F 43.2 °F 92% 29.93 in 10.0 mi West 3.5 mph - N/A   Clear
3:15 AM 45.5 °F 44.2 °F 43.2 °F 92% 29.93 in 10.0 mi WSW 3.5 mph - N/A   Clear
3:35 AM 44.8 °F 42.4 °F 43.0 °F 93% 29.93 in 10.0 mi WSW 4.6 mph - N/A   Clear
3:55 AM 43.7 °F 42.1 °F 42.4 °F 95% 29.93 in 10.0 mi WSW 3.5 mph - N/A   Clear
4:15 AM 43.3 °F - 42.4 °F 97% 29.94 in 10.0 mi Calm Calm - N/A   Clear
4:35 AM 40.8 °F 38.8 °F 40.1 °F 97% 29.94 in 4.0 mi West 3.5 mph - N/A   Clear
4:55 AM 39.0 °F - 38.8 °F 99% 29.94 in 2.0 mi Calm Calm - N/A   Clear
5:15 AM 39.0 °F - 39.0 °F 100% 29.95 in 1.2 mi Calm Calm - N/A   Mist
5:35 AM 37.6 °F - 37.6 °F 100% 29.95 in 1.0 mi Calm Calm - N/A   Mist
5:55 AM 36.5 °F - 36.5 °F 100% 29.95 in 1.2 mi Calm Calm - N/A   Mist
6:15 AM 36.1 °F - 36.1 °F 100% 29.96 in 1.5 mi Calm Calm - N/A   Mist
6:35 AM 35.8 °F - 35.8 °F 100% 29.96 in 0.8 mi Calm Calm - N/A   Mostly Cloudy
6:55 AM 36.9 °F - 36.9 °F 100% 29.96 in 0.2 mi Calm Calm - N/A Fog Fog
7:15 AM 35.6 °F - 35.6 °F 100% 29.96 in 0.5 mi Calm Calm - N/A Fog Fog
7:35 AM 40.5 °F - 40.5 °F 100% 29.98 in 10.0 mi Calm Calm - N/A   Clear
7:55 AM 43.0 °F - 43.0 °F 100% 29.98 in 10.0 mi Calm Calm - N/A   Clear
8:15 AM 44.8 °F 43.3 °F 44.8 °F 100% 29.98 in 10.0 mi SW 3.5 mph - N/A   Clear
8:35 AM 46.9 °F - 46.9 °F 100% 29.99 in 10.0 mi SW 5.8 mph - N/A   Clear
8:55 AM 49.5 °F - 45.3 °F 86% 29.99 in 10.0 mi SSW 3.5 mph - N/A   Clear
9:15 AM 51.4 °F - 45.5 °F 80% 30.00 in 10.0 mi SSW 4.6 mph - N/A   Clear
9:35 AM 54.0 °F - 45.7 °F 74% 30.00 in 10.0 mi SW 4.6 mph - N/A   Clear
9:55 AM 55.6 °F - 45.3 °F 68% 30.00 in 10.0 mi SSW 8.1 mph - N/A   Clear
10:15 AM 56.7 °F - 45.0 °F 65% 30.00 in 10.0 mi SW 3.5 mph - N/A   Clear
10:35 AM 58.1 °F - 44.6 °F 61% 30.00 in 10.0 mi WSW 6.9 mph - N/A   Clear
10:55 AM 59.9 °F - 44.4 °F 57% 30.00 in 10.0 mi SW 5.8 mph - N/A   Clear
11:15 AM 61.3 °F - 44.1 °F 53% 30.00 in 10.0 mi SW 5.8 mph - N/A   Clear
11:35 AM 63.3 °F - 44.4 °F 50% 30.00 in 10.0 mi West 4.6 mph - N/A   Clear
11:55 AM 63.9 °F - 42.4 °F 46% 29.99 in 10.0 mi SW 8.1 mph - N/A   Clear
12:15 PM 64.4 °F - 40.3 °F 41% 29.99 in 10.0 mi West 9.2 mph - N/A   Clear
12:35 PM 65.1 °F - 39.6 °F 39% 29.98 in 10.0 mi WSW 6.9 mph - N/A   Clear
12:55 PM 65.5 °F - 37.4 °F 35% 29.98 in 10.0 mi West 8.1 mph - N/A   Clear
1:15 PM 66.2 °F - 40.1 °F 38% 29.97 in 10.0 mi SW 4.6 mph - N/A   Clear
1:35 PM 66.6 °F - 39.9 °F 38% 29.96 in 10.0 mi WSW 6.9 mph - N/A   Scattered Clouds
1:55 PM 66.4 °F - 38.7 °F 36% 29.96 in 10.0 mi SW 9.2 mph - N/A   Scattered Clouds
2:15 PM 66.7 °F - 36.9 °F 33% 29.96 in 10.0 mi SW 10.4 mph - N/A   Clear
2:35 PM 66.6 °F - 37.8 °F 35% 29.96 in 10.0 mi WSW 8.1 mph - N/A   Clear
2:55 PM 67.1 °F - 37.9 °F 34% 29.95 in 10.0 mi SW 9.2 mph - N/A   Clear
3:15 PM 67.8 °F - 38.1 °F 34% 29.95 in 10.0 mi SSW 8.1 mph - N/A   Scattered Clouds
3:35 PM 67.1 °F - 38.8 °F 35% 29.95 in 10.0 mi SSW 6.9 mph - N/A   Scattered Clouds
3:55 PM 67.5 °F - 39.7 °F 36% 29.95 in 10.0 mi SSW 8.1 mph - N/A   Scattered Clouds
4:15 PM 66.9 °F - 40.5 °F 38% 29.95 in 10.0 mi SW 6.9 mph - N/A   Scattered Clouds
4:35 PM 66.7 °F - 39.4 °F 37% 29.94 in 10.0 mi South 4.6 mph - N/A   Scattered Clouds
4:55 PM 66.6 °F - 36.7 °F 33% 29.94 in 10.0 mi SW 6.9 mph - N/A   Clear
5:15 PM 66.4 °F - 38.3 °F 36% 29.94 in 10.0 mi WSW 4.6 mph - N/A   Clear
5:35 PM 65.7 °F - 38.8 °F 37% 29.94 in 10.0 mi SSW 4.6 mph - N/A   Clear
5:55 PM 64.4 °F - 39.6 °F 40% 29.94 in 10.0 mi SSW 3.5 mph - N/A   Clear
6:15 PM 62.6 °F - 40.5 °F 44% 29.94 in 10.0 mi Calm Calm - N/A   Clear
6:35 PM 54.9 °F - 45.7 °F 71% 29.94 in 10.0 mi Calm Calm - N/A   Clear
6:55 PM 50.9 °F - 45.7 °F 82% 29.93 in 10.0 mi Calm Calm - N/A   Clear
7:15 PM 48.9 °F - 45.5 °F 88% 29.94 in 10.0 mi Calm Calm - N/A   Clear
7:35 PM 47.3 °F - 45.0 °F 92% 29.94 in 10.0 mi Calm Calm - N/A   Clear
7:55 PM 46.4 °F 45.2 °F 44.4 °F 93% 29.94 in 10.0 mi South 3.5 mph - N/A   Clear
8:15 PM 50.4 °F - 43.0 °F 76% 29.95 in 10.0 mi South 3.5 mph - N/A   Clear
8:35 PM 50.4 °F - 42.8 °F 75% 29.95 in 10.0 mi South 3.5 mph - N/A   Clear
8:55 PM 52.2 °F - 43.3 °F 72% 29.95 in 10.0 mi South 4.6 mph - N/A   Clear
9:15 PM 52.9 °F - 43.9 °F 71% 29.95 in 10.0 mi South 4.6 mph - N/A   Clear
9:35 PM 51.1 °F - 43.5 °F 75% 29.95 in 10.0 mi Calm Calm - N/A   Clear
9:55 PM 49.3 °F - 43.0 °F 79% 29.95 in 10.0 mi Calm Calm - N/A   Clear
10:15 PM 47.3 °F - 42.4 °F 83% 29.95 in 10.0 mi Calm Calm - N/A   Clear
10:35 PM 45.5 °F - 42.6 °F 90% 29.95 in 10.0 mi Calm Calm - N/A   Clear
10:55 PM 42.8 °F - 41.4 °F 95% 29.95 in 10.0 mi Calm Calm - N/A   Clear
11:15 PM 42.6 °F - 41.4 °F 95% 29.95 in 10.0 mi Calm Calm - N/A   Clear
11:35 PM 41.2 °F - 40.1 °F 96% 29.95 in 10.0 mi Calm Calm - N/A   Clear
11:55 PM 41.0 °F - 40.3 °F 97% 29.95 in 10.0 mi Calm Calm - N/A   Clear